When you browse on this site, cookies collect data to enhance your experience and personalize the content and advertising you see.
Visit our Privacy Policy to learn more. By continuing to use the site, you agree to this use of cookies and data.
  • Em Portugal
  • Lista de países
  • Para 7 dias
  • Temperatura da água
  • Mapas de satélite
  • Mapa do tempo
  • Widgets de tempo
  • user-avatar
    Iniciar Sessão

    Previsão horária em Ordino

    Hoje, 22 Março, Sexta-feira

    Tempo Temperatura Precipitação Vento Pressão Humidade
    00:00 +1°C° 0 mm 1 m/s 636 mmHg 56%
    01:00 +1°C° 0 mm 1 m/s 636 mmHg 55%
    02:00 +1°C° 0 mm 1 m/s 636 mmHg 53%
    03:00 +1°C° 0 mm 1 m/s 636 mmHg 52%
    04:00 +1°C° 0 mm 1 m/s 636 mmHg 52%
    05:00 +1°C° 0 mm 1 m/s 636 mmHg 52%
    06:00 +1°C° 0 mm 1 m/s 636 mmHg 53%
    07:00 +4°C° 0 mm 1 m/s 637 mmHg 49%
    08:00 +7°C° 0 mm 1 m/s 639 mmHg 46%
    09:00 +10°C° 0 mm 1 m/s 640 mmHg 42%
    10:00 +11°C° 0 mm 1 m/s 640 mmHg 41%
    11:00 +12°C° 0 mm 1 m/s 640 mmHg 39%
    12:00 +13°C° 0 mm 1 m/s 641 mmHg 38%
    13:00 +12°C° 0.1 mm 1 m/s 640 mmHg 42%
    14:00 +12°C° 0.1 mm 1 m/s 640 mmHg 47%
    15:00 +11°C° 0.1 mm 1 m/s 639 mmHg 51%
    16:00 +9°C° 0.2 mm 0 m/s 638 mmHg 56%
    17:00 +7°C° 0.2 mm 0 m/s 638 mmHg 62%
    18:00 +6°C° 0.2 mm 0 m/s 637 mmHg 68%
    19:00 +5°C° 0 mm 0 m/s 637 mmHg 71%
    20:00 +4°C° 0 mm 0 m/s 637 mmHg 73%
    21:00 +4°C° 0 mm 1 m/s 637 mmHg 76%
    22:00 +4°C° 0 mm 1 m/s 637 mmHg 76%
    23:00 +4°C° 0 mm 1 m/s 637 mmHg 77%

    Amanhã, 23 Março, Sábado

    Tempo Temperatura Precipitação Vento Pressão Humidade
    00:00 +3°C° 0 mm 1 m/s 637 mmHg 77%
    01:00 +3°C° 0 mm 1 m/s 637 mmHg 76%
    02:00 +3°C° 0 mm 1 m/s 637 mmHg 75%
    03:00 +3°C° 0 mm 1 m/s 637 mmHg 75%
    04:00 +3°C° 0 mm 1 m/s 637 mmHg 74%
    05:00 +3°C° 0 mm 1 m/s 636 mmHg 73%
    06:00 +3°C° 0 mm 1 m/s 636 mmHg 72%
    07:00 +5°C° 0 mm 1 m/s 637 mmHg 62%
    08:00 +8°C° 0 mm 1 m/s 639 mmHg 53%
    09:00 +10°C° 0 mm 0 m/s 640 mmHg 43%
    10:00 +11°C° 0 mm 0 m/s 640 mmHg 40%
    11:00 +13°C° 0 mm 1 m/s 640 mmHg 37%
    12:00 +14°C° 0 mm 1 m/s 640 mmHg 35%
    13:00 +14°C° 0 mm 1 m/s 640 mmHg 36%
    14:00 +14°C° 0 mm 1 m/s 639 mmHg 38%
    15:00 +14°C° 0 mm 1 m/s 639 mmHg 39%
    16:00 +12°C° 0 mm 1 m/s 638 mmHg 47%
    17:00 +10°C° 0 mm 1 m/s 637 mmHg 55%
    18:00 +8°C° 0 mm 1 m/s 636 mmHg 63%
    19:00 +7°C° 0 mm 1 m/s 636 mmHg 67%
    20:00 +6°C° 0 mm 1 m/s 636 mmHg 71%
    21:00 +5°C° 0 mm 1 m/s 636 mmHg 75%
    22:00 +5°C° 0 mm 1 m/s 636 mmHg 74%
    23:00 +5°C° 0 mm 1 m/s 636 mmHg 73%

    Depois de amanhã, 24 Março, Domingo

    Tempo Temperatura Precipitação Vento Pressão Humidade
    00:00 +5°C° 0 mm 1 m/s 636 mmHg 72%
    01:00 +5°C° 0 mm 1 m/s 636 mmHg 70%
    02:00 +5°C° 0 mm 1 m/s 636 mmHg 67%
    03:00 +5°C° 0 mm 1 m/s 636 mmHg 65%
    04:00 +5°C° 0 mm 1 m/s 636 mmHg 64%
    05:00 +4°C° 0 mm 1 m/s 636 mmHg 63%
    06:00 +4°C° 0 mm 1 m/s 635 mmHg 61%
    07:00 +7°C° 0 mm 1 m/s 637 mmHg 55%
    08:00 +9°C° 0 mm 1 m/s 638 mmHg 48%
    09:00 +11°C° 0 mm 1 m/s 639 mmHg 42%
    10:00 +13°C° 0 mm 1 m/s 639 mmHg 41%
    11:00 +14°C° 0 mm 1 m/s 639 mmHg 40%
    12:00 +15°C° 0 mm 1 m/s 639 mmHg 39%
    13:00 +14°C° 0.1 mm 1 m/s 639 mmHg 43%
    14:00 +13°C° 0.1 mm 1 m/s 638 mmHg 47%
    15:00 +12°C° 0.1 mm 1 m/s 637 mmHg 52%
    16:00 +11°C° 0.4 mm 1 m/s 637 mmHg 60%
    17:00 +10°C° 0.4 mm 1 m/s 636 mmHg 69%
    18:00 +8°C° 0.4 mm 1 m/s 636 mmHg 78%
    19:00 +8°C° 0.1 mm 1 m/s 636 mmHg 82%
    20:00 +7°C° 0.1 mm 1 m/s 636 mmHg 86%
    21:00 +6°C° 0.1 mm 1 m/s 636 mmHg 90%
    22:00 +6°C° 0 mm 1 m/s 636 mmHg 91%
    23:00 +6°C° 0 mm 1 m/s 636 mmHg 92%

    25 Março, Segunda-feira

    Tempo Temperatura Precipitação Vento Pressão Humidade
    00:00 +5°C° 0 mm 1 m/s 636 mmHg 93%
    01:00 +5°C° 0 mm 1 m/s 635 mmHg 93%
    02:00 +5°C° 0 mm 1 m/s 635 mmHg 93%
    03:00 +4°C° 0 mm 1 m/s 635 mmHg 94%
    04:00 +4°C° 0 mm 1 m/s 635 mmHg 93%
    05:00 +3°C° 0 mm 1 m/s 634 mmHg 92%
    06:00 +3°C° 0 mm 1 m/s 634 mmHg 91%
    07:00 +5°C° 0 mm 1 m/s 635 mmHg 79%
    08:00 +7°C° 0 mm 1 m/s 636 mmHg 68%
    09:00 +10°C° 0 mm 1 m/s 637 mmHg 56%
    10:00 +11°C° 0 mm 1 m/s 637 mmHg 53%
    11:00 +12°C° 0 mm 1 m/s 638 mmHg 49%
    12:00 +13°C° 0 mm 2 m/s 638 mmHg 45%
    13:00 +13°C° 0 mm 2 m/s 637 mmHg 49%
    14:00 +12°C° 0 mm 2 m/s 636 mmHg 53%
    15:00 +10°C° 0 mm 2 m/s 636 mmHg 57%
    16:00 +9°C° 0.1 mm 2 m/s 635 mmHg 65%
    17:00 +8°C° 0.1 mm 2 m/s 635 mmHg 72%
    18:00 +6°C° 0.1 mm 2 m/s 634 mmHg 80%
    19:00 +5°C° 0 mm 2 m/s 634 mmHg 84%
    20:00 +4°C° 0 mm 2 m/s 634 mmHg 87%
    21:00 +4°C° 0 mm 2 m/s 635 mmHg 91%
    22:00 +3°C° 0 mm 2 m/s 634 mmHg 89%
    23:00 +2°C° 0 mm 2 m/s 634 mmHg 87%

    26 Março, Terça-feira

    Tempo Temperatura Precipitação Vento Pressão Humidade
    00:00 +1°C° 0 mm 2 m/s 634 mmHg 85%
    01:00 +1°C° 0 mm 2 m/s 634 mmHg 81%
    02:00 +1°C° 0 mm 2 m/s 634 mmHg 77%
    03:00 +1°C° 0 mm 2 m/s 634 mmHg 73%
    04:00 +1°C° 0 mm 2 m/s 634 mmHg 73%
    05:00 +1°C° 0 mm 2 m/s 634 mmHg 73%
    06:00 +1°C° 0 mm 2 m/s 634 mmHg 73%
    07:00 +4°C° 0 mm 2 m/s 636 mmHg 61%
    08:00 +7°C° 0 mm 2 m/s 637 mmHg 48%
    09:00 +11°C° 0 mm 1 m/s 638 mmHg 35%
    10:00 +12°C° 0 mm 1 m/s 639 mmHg 32%
    11:00 +14°C° 0 mm 1 m/s 639 mmHg 28%
    12:00 +15°C° 0 mm 1 m/s 640 mmHg 24%
    13:00 +15°C° 0 mm 1 m/s 640 mmHg 27%
    14:00 +14°C° 0 mm 1 m/s 640 mmHg 30%
    15:00 +14°C° 0 mm 2 m/s 639 mmHg 33%
    16:00 +12°C° 0 mm 1 m/s 639 mmHg 42%
    17:00 +10°C° 0 mm 1 m/s 638 mmHg 51%
    18:00 +8°C° 0 mm 1 m/s 638 mmHg 61%
    19:00 +7°C° 0 mm 1 m/s 638 mmHg 66%
    20:00 +6°C° 0 mm 1 m/s 638 mmHg 72%
    21:00 +5°C° 0 mm 1 m/s 638 mmHg 78%
    22:00 +4°C° 0 mm 1 m/s 638 mmHg 80%
    23:00 +4°C° 0 mm 1 m/s 638 mmHg 82%

    27 Março, Quarta-feira

    Tempo Temperatura Precipitação Vento Pressão Humidade
    00:00 +3°C° 0 mm 1 m/s 638 mmHg 84%
    01:00 +3°C° 0 mm 1 m/s 638 mmHg 85%
    02:00 +3°C° 0 mm 1 m/s 638 mmHg 85%
    03:00 +3°C° 0 mm 1 m/s 638 mmHg 85%
    04:00 +3°C° 0 mm 1 m/s 637 mmHg 84%
    05:00 +3°C° 0 mm 1 m/s 637 mmHg 83%
    06:00 +3°C° 0 mm 1 m/s 637 mmHg 81%
    07:00 +6°C° 0 mm 1 m/s 639 mmHg 68%
    08:00 +9°C° 0 mm 1 m/s 640 mmHg 55%
    09:00 +12°C° 0 mm 1 m/s 641 mmHg 41%
    10:00 +13°C° 0 mm 1 m/s 641 mmHg 38%
    11:00 +14°C° 0 mm 1 m/s 642 mmHg 34%
    12:00 +16°C° 0 mm 1 m/s 642 mmHg 30%
    13:00 +15°C° 0 mm 1 m/s 641 mmHg 32%
    14:00 +15°C° 0 mm 1 m/s 641 mmHg 33%
    15:00 +15°C° 0 mm 1 m/s 640 mmHg 34%
    16:00 +13°C° 0 mm 1 m/s 639 mmHg 42%
    17:00 +10°C° 0 mm 1 m/s 639 mmHg 50%
    18:00 +8°C° 0 mm 1 m/s 638 mmHg 58%
    19:00 +7°C° 0 mm 1 m/s 638 mmHg 62%
    20:00 +6°C° 0 mm 1 m/s 637 mmHg 66%
    21:00 +4°C° 0 mm 1 m/s 637 mmHg 69%
    22:00 +4°C° 0 mm 1 m/s 637 mmHg 69%
    23:00 +4°C° 0 mm 1 m/s 637 mmHg 68%
    Mostrar mais